User: anonymous   Login
Location: Barcelona
(41.3830°N, 2.1830°E)
Time: 21:09:16
(UTC+01:00)
Language:

CAS-4B - Orbit

View from above orbital plane
View from above orbital plane
View from above satellite
View from above satellite

Ground track
Ground track

The orbit data is extracted from the following two-line orbital elements,

1 42759U 17034B   19081.14762756  .00000268  00000-0  29976-4 0  9992
2 42759  43.0191 357.0595 0010403  45.8958 103.1206 15.09513799 97455
Epoch (UTC): 22 March 2019 03:32:35
Eccentricity: 0.0010403
inclination: 43.0191°
perigee height: 530 km
apogee height: 545 km
right ascension of ascending node: 357.0595°
argument of perigee: 45.8958°
revolutions per day: 15.09513799
mean anomaly at epoch: 103.1206°
orbit number at epoch: 9745

The dashed part of the orbit path shows where the satellite is in the earth's shadow,  

DLR